Hourly Weather Roundup
Issued by NWS Central Illinois

Home | Current Version | Previous Version | Text Only | Print | Product List | Glossary Off
Versions: 1 2 3 4 5 6 7 8 9 10 11 12 13 14 15 16 17 18 19 20 21 22 23 24 25 26 27 28 29 30 31 32 33 34 35 36 37 38 39 40 41 42 43 44 45 46 47 48 49 50

000
NZUS43 KILX 100210
HWRILX

Area Weather Roundup
National Weather Service Lincoln IL
800 PM CST SAT DEC 09 2017

NOTE:  "FAIR" indicates few or no clouds below 12,000 feet, with
       no sigificant weather and/or obstructions to visibility.


CITY           SKY/WX    TMP DP  RH WIND       PRES   REMARKS
Bloomington    CLEAR     21  14  74 W7        30.12  WCI  12
Champaign      CLEAR     20  13  74 W9        30.12R WCI   9
Danville       CLEAR     24  15  66 W12G21    30.07R WCI  13
Decatur        CLEAR     24  15  68 W7        30.13S WCI  16
Effingham      CLEAR     25  18  73 W6        30.17R WCI  18
Flora          CLEAR     30  17  59 NW6       30.18R WCI  24
Galesburg      CLOUDY    20  15  80 W10       30.15R WCI   9
Jacksonville   CLEAR     24  14  67 W8        30.18S WCI  14
Lacon          CLEAR     22  13  69 NW5       30.12S WCI  16
Lawrenceville  CLEAR     28  16  60 NW9       30.16R WCI  19
Litchfield     CLEAR     26  15  65 W9        30.18R WCI  16
$$


CITY           SKY/WX    TMP DP  RH WIND       PRES   REMARKS
Lincoln        CLEAR     27  15  61 CALM      30.15R
Macomb         CLEAR     22  14  74 W8        30.18R WCI  12
Mattoon        CLEAR     20  15  81 W8        30.13R WCI  10
Mt Carmel AP   CLEAR     29  16  56 NW13      30.15R WCI  19
Olney-Noble AP PTCLDY    29  13  52 NW7       30.18R WCI  21
Paris AP       CLEAR     24  16  71 W12       30.13R WCI  13
Peoria         CLEAR     24  13  62 W5        30.14R WCI  18
Pontiac        CLEAR     21  15  77 W6        30.11S WCI  14
Rantoul        CLEAR     25  16  70 NW8       30.11R WCI  16
Robinson       CLEAR     26  16  67 NW8       30.16R WCI  17
Springfield    CLEAR     23  13  65 W8        30.17R WCI  14
Taylorville    CLEAR     25  14  64 W8        30.16S WCI  16
$$

...REGIONAL REPORTS...


CITY           SKY/WX    TMP DP  RH WIND       PRES   REMARKS
Chicago O`Hare PTCLDY    24  13  62 NW12      30.05R WCI  13
Kankakee       CLEAR     24  14  66 NW9       30.09R WCI  14
Moline         CLOUDY    24  13  62 NW9       30.12R WCI  14
Mount Sterling CLEAR     23  15  70 W7        30.18R WCI  15
Mount Vernon   CLOUDY    30  18  60 CALM      30.19R
Pittsfield     CLEAR     26  16  67 W6        30.20S WCI  19
Quincy         CLEAR     23  14  68 W6        30.18R WCI  16
Rockford       MOCLDY    20  11  68 NW6       30.10R WCI  12
$$


CITY           SKY/WX    TMP DP  RH WIND       PRES   REMARKS
Burlington     CLOUDY    23  14  68 W5        30.15R WCI  17
Cedar Rapids   CLOUDY    15  10  80 W7        30.11S WCI   5
Des Moines     CLOUDY    24  14  65 SW8       30.13F WCI  15
Kirksville     CLOUDY    21  14  74 W5        30.19S WCI  15
Ottumwa        CLOUDY    20  12  71 W7        30.15F WCI  11
St Louis       PTCLDY    27  17  66 NW6       30.21R WCI  20
$$


CITY           SKY/WX    TMP DP  RH WIND       PRES   REMARKS
Terre Haute    PTCLDY    28  14  55 NW15      30.12R WCI  16
Evansville     CLOUDY    32  17  54 W8        30.17R WCI  25
Indianapolis   CLOUDY    28  17  63 NW22G35   30.04R WCI  14
Lafayette      CLOUDY    27  17  66 NW10      30.07R WCI  17
Madison        CLOUDY    18  10  71 CALM      30.04F
Milwaukee      PTCLDY    21  11  65 NW10      30.03S WCI  10
$$






USA.gov is the U.S. government's official web portal to all federal, state and local government web resources and services.